When you browse on this site, cookies collect data to enhance your experience and personalize the content and advertising you see.
Visit our Privacy Policy to learn more. By continuing to use the site, you agree to this use of cookies and data.
  • en Suisse
  • Liste des pays
  • À 7 jours
  • Température de l'eau
  • Carte météo
  • Widgets météo
  • user-avatar
    Se connecter

    Météo par heure à Smolenka

    Ce jour, 18 Août, Dimanche

    Heure Température Précipitation Vent Pression Humidité
    00:00 +12°C° 0 mm 1 m/s 755 mmHg 82%
    01:00 +12°C° 0 mm 1 m/s 754 mmHg 84%
    02:00 +10°C° 0 mm 0 m/s 754 mmHg 85%
    03:00 +11°C° 0 mm 1 m/s 754 mmHg 86%
    04:00 +11°C° 0 mm 1 m/s 754 mmHg 87%
    05:00 +11°C° 0 mm 1 m/s 754 mmHg 88%
    06:00 +13°C° 0 mm 1 m/s 754 mmHg 82%
    07:00 +15°C° 0 mm 1 m/s 754 mmHg 76%
    08:00 +18°C° 0 mm 1 m/s 754 mmHg 70%
    09:00 +19°C° 0 mm 1 m/s 753 mmHg 66%
    10:00 +21°C° 0 mm 1 m/s 753 mmHg 62%
    11:00 +23°C° 0 mm 1 m/s 753 mmHg 57%
    12:00 +23°C° 0 mm 1 m/s 753 mmHg 55%
    13:00 +24°C° 0 mm 1 m/s 753 mmHg 53%
    14:00 +23°C° 0 mm 0 m/s 752 mmHg 50%
    15:00 +22°C° 0 mm 0 m/s 752 mmHg 52%
    16:00 +22°C° 0 mm 0 m/s 752 mmHg 54%
    17:00 +22°C° 0 mm 0 m/s 752 mmHg 55%
    18:00 +21°C° 0 mm 1 m/s 752 mmHg 62%
    19:00 +19°C° 0 mm 1 m/s 752 mmHg 69%
    20:00 +16°C° 0 mm 1 m/s 752 mmHg 75%
    21:00 +16°C° 0 mm 1 m/s 753 mmHg 78%
    22:00 +15°C° 0 mm 1 m/s 753 mmHg 81%
    23:00 +15°C° 0 mm 2 m/s 753 mmHg 83%

    Demain, 19 Août, Lundi

    Heure Température Précipitation Vent Pression Humidité
    00:00 +15°C° 0 mm 2 m/s 753 mmHg 85%
    01:00 +14°C° 0 mm 2 m/s 752 mmHg 86%
    02:00 +14°C° 0 mm 2 m/s 752 mmHg 87%
    03:00 +14°C° 0 mm 2 m/s 752 mmHg 86%
    04:00 +13°C° 0 mm 3 m/s 752 mmHg 84%
    05:00 +13°C° 0 mm 3 m/s 752 mmHg 83%
    06:00 +16°C° 0 mm 3 m/s 752 mmHg 81%
    07:00 +17°C° 0 mm 3 m/s 752 mmHg 79%
    08:00 +19°C° 0 mm 4 m/s 752 mmHg 78%
    09:00 +19°C° 0 mm 4 m/s 752 mmHg 77%
    10:00 +20°C° 0 mm 4 m/s 752 mmHg 75%
    11:00 +21°C° 0 mm 4 m/s 752 mmHg 74%
    12:00 +22°C° 0 mm 3 m/s 752 mmHg 76%
    13:00 +22°C° 0 mm 3 m/s 752 mmHg 77%
    14:00 +22°C° 0 mm 3 m/s 752 mmHg 79%
    15:00 +22°C° 0.2 mm 3 m/s 752 mmHg 80%
    16:00 +24°C° 0.2 mm 2 m/s 752 mmHg 82%
    17:00 +24°C° 0.2 mm 2 m/s 753 mmHg 83%
    18:00 +23°C° 0.3 mm 2 m/s 753 mmHg 87%
    19:00 +20°C° 0.3 mm 2 m/s 753 mmHg 91%
    20:00 +19°C° 0.3 mm 2 m/s 754 mmHg 95%
    21:00 +18°C° 0 mm 2 m/s 754 mmHg 95%
    22:00 +18°C° 0 mm 2 m/s 755 mmHg 95%
    23:00 +18°C° 0 mm 1 m/s 755 mmHg 95%

    Après-demain, 20 Août, Mardi

    Heure Température Précipitation Vent Pression Humidité
    00:00 +16°C° 0 mm 1 m/s 755 mmHg 94%
    01:00 +16°C° 0 mm 1 m/s 756 mmHg 93%
    02:00 +14°C° 0 mm 0 m/s 756 mmHg 92%
    03:00 +14°C° 0 mm 0 m/s 756 mmHg 92%
    04:00 +14°C° 0 mm 0 m/s 757 mmHg 92%
    05:00 +13°C° 0 mm 0 m/s 757 mmHg 91%
    06:00 +16°C° 0 mm 1 m/s 757 mmHg 88%
    07:00 +18°C° 0 mm 1 m/s 758 mmHg 86%
    08:00 +19°C° 0 mm 1 m/s 758 mmHg 83%
    09:00 +21°C° 0.2 mm 1 m/s 758 mmHg 77%
    10:00 +22°C° 0.2 mm 1 m/s 758 mmHg 72%
    11:00 +24°C° 0.2 mm 2 m/s 758 mmHg 67%
    12:00 +24°C° 0.4 mm 2 m/s 758 mmHg 66%
    13:00 +24°C° 0.4 mm 2 m/s 758 mmHg 66%
    14:00 +24°C° 0.4 mm 2 m/s 758 mmHg 66%
    15:00 +24°C° 0.1 mm 1 m/s 758 mmHg 66%
    16:00 +24°C° 0.1 mm 1 m/s 758 mmHg 67%
    17:00 +24°C° 0.1 mm 1 m/s 758 mmHg 67%
    18:00 +22°C° 0 mm 1 m/s 759 mmHg 71%
    19:00 +20°C° 0 mm 1 m/s 759 mmHg 76%
    20:00 +19°C° 0 mm 1 m/s 759 mmHg 80%
    21:00 +18°C° 0 mm 1 m/s 759 mmHg 80%
    22:00 +16°C° 0 mm 1 m/s 760 mmHg 80%
    23:00 +16°C° 0 mm 1 m/s 760 mmHg 81%

    21 Août, Mercredi

    Heure Température Précipitation Vent Pression Humidité
    00:00 +15°C° 0 mm 1 m/s 760 mmHg 81%
    01:00 +14°C° 0 mm 0 m/s 760 mmHg 81%
    02:00 +13°C° 0 mm 0 m/s 760 mmHg 81%
    03:00 +14°C° 0 mm 1 m/s 760 mmHg 82%
    04:00 +14°C° 0 mm 1 m/s 760 mmHg 83%
    05:00 +14°C° 0 mm 1 m/s 760 mmHg 84%
    06:00 +15°C° 0 mm 1 m/s 760 mmHg 82%
    07:00 +18°C° 0 mm 1 m/s 760 mmHg 80%
    08:00 +19°C° 0 mm 1 m/s 760 mmHg 79%
    09:00 +20°C° 0 mm 1 m/s 760 mmHg 75%
    10:00 +22°C° 0 mm 1 m/s 760 mmHg 72%
    11:00 +23°C° 0 mm 1 m/s 760 mmHg 68%
    12:00 +22°C° 0.9 mm 1 m/s 760 mmHg 74%
    13:00 +20°C° 0.9 mm 2 m/s 760 mmHg 80%
    14:00 +19°C° 0.9 mm 2 m/s 760 mmHg 87%
    15:00 +18°C° 0.5 mm 2 m/s 760 mmHg 89%
    16:00 +19°C° 0.5 mm 1 m/s 759 mmHg 91%
    17:00 +18°C° 0.5 mm 1 m/s 759 mmHg 92%
    18:00 +16°C° 0.5 mm 1 m/s 759 mmHg 94%
    19:00 +16°C° 0.5 mm 1 m/s 759 mmHg 95%
    20:00 +15°C° 0.5 mm 1 m/s 759 mmHg 96%
    21:00 +15°C° 0.1 mm 1 m/s 759 mmHg 96%
    22:00 +15°C° 0.1 mm 1 m/s 759 mmHg 96%
    23:00 +15°C° 0.1 mm 1 m/s 759 mmHg 96%

    22 Août, Jeudi

    Heure Température Précipitation Vent Pression Humidité
    00:00 +14°C° 0 mm 2 m/s 759 mmHg 95%
    01:00 +14°C° 0 mm 2 m/s 760 mmHg 95%
    02:00 +13°C° 0 mm 2 m/s 760 mmHg 95%
    03:00 +12°C° 0 mm 2 m/s 760 mmHg 95%
    04:00 +12°C° 0 mm 2 m/s 760 mmHg 96%
    05:00 +10°C° 0 mm 2 m/s 760 mmHg 96%
    06:00 +12°C° 0 mm 2 m/s 760 mmHg 93%
    07:00 +14°C° 0 mm 2 m/s 761 mmHg 91%
    08:00 +15°C° 0 mm 2 m/s 761 mmHg 88%
    09:00 +16°C° 0 mm 2 m/s 761 mmHg 79%
    10:00 +18°C° 0 mm 2 m/s 761 mmHg 71%
    11:00 +19°C° 0 mm 3 m/s 761 mmHg 63%
    12:00 +20°C° 0 mm 3 m/s 761 mmHg 60%
    13:00 +20°C° 0 mm 3 m/s 761 mmHg 57%
    14:00 +21°C° 0 mm 3 m/s 761 mmHg 54%
    15:00 +21°C° 0 mm 2 m/s 761 mmHg 58%
    16:00 +20°C° 0 mm 2 m/s 761 mmHg 62%
    17:00 +20°C° 0 mm 2 m/s 761 mmHg 67%
    18:00 +18°C° 0 mm 2 m/s 761 mmHg 72%
    19:00 +18°C° 0 mm 1 m/s 761 mmHg 78%
    20:00 +15°C° 0 mm 1 m/s 761 mmHg 83%
    21:00 +14°C° 0 mm 1 m/s 761 mmHg 85%
    22:00 +13°C° 0 mm 1 m/s 761 mmHg 86%
    23:00 +12°C° 0 mm 1 m/s 761 mmHg 88%

    23 Août, Vendredi

    Heure Température Précipitation Vent Pression Humidité
    00:00 +12°C° 0 mm 1 m/s 761 mmHg 87%
    01:00 +12°C° 0 mm 1 m/s 761 mmHg 87%
    02:00 +12°C° 0 mm 1 m/s 762 mmHg 86%
    03:00 +11°C° 0 mm 1 m/s 761 mmHg 88%
    04:00 +11°C° 0 mm 1 m/s 761 mmHg 89%
    05:00 +11°C° 0 mm 1 m/s 761 mmHg 90%
    06:00 +12°C° 0 mm 1 m/s 761 mmHg 86%
    07:00 +14°C° 0 mm 1 m/s 761 mmHg 81%
    08:00 +15°C° 0 mm 1 m/s 761 mmHg 77%
    09:00 +16°C° 0 mm 2 m/s 761 mmHg 72%
    10:00 +17°C° 0 mm 2 m/s 761 mmHg 67%
    11:00 +19°C° 0 mm 2 m/s 761 mmHg 62%
    12:00 +18°C° 0.1 mm 3 m/s 761 mmHg 67%
    13:00 +17°C° 0.1 mm 3 m/s 761 mmHg 72%
    14:00 +15°C° 0.1 mm 4 m/s 760 mmHg 77%
    15:00 +16°C° 0.1 mm 3 m/s 760 mmHg 80%
    16:00 +16°C° 0.1 mm 3 m/s 760 mmHg 82%
    17:00 +16°C° 0.1 mm 2 m/s 760 mmHg 85%
    18:00 +15°C° 0.1 mm 2 m/s 760 mmHg 88%
    19:00 +14°C° 0.1 mm 2 m/s 760 mmHg 92%
    20:00 +13°C° 0.1 mm 2 m/s 760 mmHg 95%
    21:00 +13°C° 0 mm 2 m/s 760 mmHg 96%
    22:00 +13°C° 0 mm 2 m/s 761 mmHg 96%
    23:00 +12°C° 0 mm 2 m/s 761 mmHg 97%
    Voir plus